Regional Weather Roundup
Issued by NWS Little Rock, AR

Home | Current Version | Previous Version | Text Only | Print | Product List | Glossary Off
Versions: 1 2 3 4 5 6 7 8 9 10 11 12 13 14 15 16 17 18 19 20 21 22 23 24 25 26 27 28 29 30 31 32 33 34 35 36 37 38 39 40 41 42 43 44 45 46 47 48 49 50

000
ASUS44 KLZK 012205
RWRLZK

WEATHER ROUNDUP FOR ARKANSAS
NATIONAL WEATHER SERVICE LITTLE ROCK AR
500 PM CDT TUE SEP 01 2015

NOTE: "FAIR" INDICATES FEW OR NO CLOUDS BELOW 12,000 FEET WITH NO
SIGNIFICANT WEATHER AND/OR OBSTRUCTIONS TO VISIBILITY.

ARZ001-003-010-029-012300-
NORTHWEST ARKANSAS

CITY           SKY/WX    TMP DP  RH WIND       PRES   REMARKS
FAYETTEVILLE   SUNNY     85  66  53 SE9       30.06F HX  87
FORT SMITH     MOSUNNY   92  60  34 CALM      30.00S HX  91
HARRISON       SUNNY     87  63  44 S10       30.07S HX  88
BENTONVILLE    MOSUNNY   88  61  40 S12       30.07S HX  88
ROGERS         MOSUNNY   87  65  47 S12       30.07F HX  89
SILOAM SPGS    SUNNY     86  64  48 S10       30.04S HX  87
HIGHFILL       SUNNY     86  66  51 S10       30.06S HX  88
SPRINGDALE     MOSUNNY   86  66  51 S12       30.08F HX  88
$$

ARZ004-005-016-012300-
NORTH CENTRAL ARKANSAS

CITY           SKY/WX    TMP DP  RH WIND       PRES   REMARKS
BATESVILLE     CLOUDY    88  72  58 E7        30.05S HX  94
FLIPPIN        MOSUNNY   90  66  45 SE5G16    30.03S HX  92
MTN HOME       MOSUNNY   87  69  54 SE8       30.05S HX  91
$$

ARZ040-041-012300-
WEST CENTRAL ARKANSAS

CITY           SKY/WX    TMP DP  RH WIND       PRES   REMARKS
MENA           MOSUNNY   90  64  43 S3        30.05S HX  91
MOUNT IDA      MOSUNNY   89  67  47 S8        30.03F HX  92
$$

ARZ009-017-025-026-028-012300-
NORTHEAST ARKANSAS

CITY           SKY/WX    TMP DP  RH WIND       PRES   REMARKS
JONESBORO      PTSUNNY   86  68  54 SE7       30.05S HX  89
NEWPORT        CLOUDY    87  73  62 VRB5      30.06S HX  94
WALNUT RIDGE   PTSUNNY   88  70  55 SE7       30.04S HX  92
BLYTHEVILLE    MOSUNNY   90  70  51 SE5       30.06S HX  95
$$

ARZ022-023-033-042-044-012300-
CENTRAL ARKANSAS

CITY           SKY/WX    TMP DP  RH WIND       PRES   REMARKS
LITTLE ROCK    CLOUDY    91  64  40 SE7       30.03F HX  92
N LITTLE ROCK  PTSUNNY   89  66  46 SE8       30.03F HX  91
JACKSONVILLE   CLOUDY    91  65  42 S7        30.03S HX  92
SEARCY         CLOUDY    91  71  51 S7        30.05S HX  97
HOT SPRINGS    PTSUNNY   88  65  46 SW3       30.05S HX  90
RUSSELLVILLE   SUNNY     92  62  36 SE7       30.02S HX  92
$$

ARZ036-012300-
EAST ARKANSAS

CITY           SKY/WX    TMP DP  RH WIND       PRES   REMARKS
WEST MEMPHIS   PTSUNNY   88  68  51 S3        30.03S HX  91
$$

ARZ050-053-066-070-073-012300-
SOUTHWEST ARKANSAS

CITY           SKY/WX    TMP DP  RH WIND       PRES   REMARKS
ARKADELPHIA    FAIR      92  68  45 E5        30.03F HX  96
CAMDEN         PTSUNNY   86  68  54 CALM      30.03S HX  89
TEXARKANA      MOSUNNY   89  68  49 S7        30.03S HX  93
EL DORADO      CLOUDY    87  66  49 SE5       30.04F HX  89
DE QUEEN       SUNNY     90  67  46 SE7       30.00F HX  93
$$

ARZ056-057-069-012300-
SOUTHEAST ARKANSAS

CITY           SKY/WX    TMP DP  RH WIND       PRES   REMARKS
PINE BLUFF     CLOUDY    88  70  55 S5        30.03S HX  93
STUTTGART      CLOUDY    93  68  43 SW3       30.04S HX  97
MONTICELLO     CLOUDY    90  66  45 CALM      30.03S HX  92

$$




USA.gov is the U.S. government's official web portal to all federal, state and local government web resources and services.